This demonstration page uses our WeatherBlox Daily Observations layout. Learn more.

Left ArrowRight Arrow

Hourly Observations for March 3, 2021

Temp ( °F °C ) Dew Point ( °F °C ) Humidity (%) Winds ( mph kmh ) Pressure ( in mb ) Visibility ( mi km ) Precip ( " mm )
12:15 am 00:15 Clear 31 -0.5 27 -2.7 85 85 NW 5 7 30.04 1017 10 16.0934 0 0
12:35 am 00:35 Clear 31 -0.8 27 -3 85 85 NW 5 7 30.04 1017 10 16.0934 0 0
12:50 am 00:50 Clear 31 -0.8 27 -2.8 86 86 NW 8 13 30.03 1017 10 16.0934 0 0
1:15 am 01:15 Clear 30 -1 26 -3.2 85 85 WNW 3 6 30.04 1017 10 16.0934 0 0
1:35 am 01:35 Clear 30 -1.3 27 -2.7 90 90 WNW 5 7 30.05 1018 10 16.0934 0 0
1:55 am 01:55 Clear 30 -1.2 27 -3 88 88 WNW 7 11 30.05 1018 10 16.0934 0 0
2:15 am 02:15 Clear 30 -1.1 26 -3.1 86 86 W 5 7 30.05 1018 10 16.0934 0 0
2:35 am 02:35 Clear 30 -1.1 27 -2.9 88 88 NW 5 7 30.06 1018 10 16.0934 0 0
2:55 am 02:55 Clear 29 -1.5 26 -3.4 87 87 W 3 6 30.06 1018 10 16.0934 0 0
3:15 am 03:15 Clear 29 -1.5 26 -3.3 88 88 NNW 3 6 30.06 1018 10 16.0934 0 0
3:35 am 03:35 Clear 29 -1.9 26 -3.5 89 89 WNW 5 7 30.07 1018 10 16.0934 0 0
3:55 am 03:55 Clear 28 -2.1 26 -3.5 90 90 W 5 7 30.07 1018 10 16.0934 0 0
4:15 am 04:15 Clear 29 -1.7 26 -3.5 88 88 WNW 7 11 30.06 1018 10 16.0934 0 0
4:35 am 04:35 Clear 29 -1.9 25 -4 86 86 W 6 9 30.08 1018 10 16.0934 0 0
4:55 am 04:55 Clear 29 -1.8 26 -3.6 88 88 W 7 11 30.07 1018 10 16.0934 0 0
5:15 am 05:15 Clear 28 -2.1 25 -3.9 88 88 WNW 7 11 30.09 1019 10 16.0934 0 0
5:35 am 05:35 Clear 28 -2.5 24 -4.3 88 88 WNW 8 13 30.09 1019 10 16.0934 0 0
5:55 am 05:55 Clear 28 -2 25 -4 86 86 W 5 7 30.1 1019 10 16.0934 0 0
6:15 am 06:15 Clear 28 -2 25 -3.9 87 87 WNW 6 9 30.1 1019 10 16.0934 0 0
6:35 am 06:35 Clear 27 -2.6 24 -4.5 87 87 W 6 9 30.11 1020 10 16.0934 0 0
6:55 am 06:55 Clear 28 -2.5 24 -4.2 88 88 WNW 7 11 30.11 1020 10 16.0934 0 0
7:15 am 07:15 Sunny 28 -2 25 -4.1 86 86 WNW 7 11 30.11 1020 10 16.0934 0 0
7:35 am 07:35 Sunny 28 -2 25 -3.8 88 88 W 7 11 30.12 1020 10 16.0934 0 0
7:50 am 07:50 Sunny 29 -1.5 25 -3.7 85 85 W 7 11 30.11 1020 10 16.0934 0 0
8:15 am 08:15 Sunny 32 -0.2 26 -3.2 80 80 WNW 6 9 30.11 1020 10 16.0934 0 0
8:35 am 08:35 Sunny 33 0.3 28 -2.4 82 82 WNW 7 11 30.11 1020 10 16.0934 0 0
8:55 am 08:55 Sunny 35 1.6 29 -1.6 80 80 WNW 6 9 30.11 1020 10 16.0934 0 0
9:15 am 09:15 Sunny 37 2.9 30 -1.1 75 75 W 8 13 30.11 1020 10 16.0934 0 0
9:35 am 09:35 Sunny 40 4.5 31 -0.5 70 70 W 7 11 30.09 1019 10 16.0934 0 0
9:55 am 09:55 Sunny 44 6.4 32 0 64 64 WNW 6 9 30.07 1018 10 16.0934 0 0
10:15 am 10:15 Sunny 47 8.4 33 0.3 57 57 WNW 6 9 30.07 1018 10 16.0934 0 0
10:35 am 10:35 Sunny 51 10.3 32 0.2 50 50 W 5 7 30.05 1018 10 16.0934 0 0
10:55 am 10:55 Sunny 53 11.5 31 -0.6 43 43 Calm 30.04 1017 10 16.0934 0 0
11:15 am 11:15 Sunny 55 12.6 31 -0.3 41 41 S 3 6 30.02 1017 10 16.0934 0 0
11:35 am 11:35 Sunny 57 13.8 33 0.5 40 40 S 6 9 30.01 1016 10 16.0934 0 0
11:55 am 11:55 Sunny 58 14.5 33 0.6 39 39 SSE 7 11 29.99 1016 10 16.0934 0 0
12:15 pm 12:15 Sunny 59 15.2 33 0.7 38 38 SSE 5 7 29.98 1015 10 16.0934 0 0
12:35 pm 12:35 Sunny 60 15.7 30 -0.9 32 32 Calm 29.98 1015 10 16.0934 0 0
12:55 pm 12:55 Sunny 61 16.3 30 -1 31 31 S 5 7 29.96 1015 10 16.0934 0 0
1:15 pm 13:15 Sunny 62 16.8 30 -1.1 30 30 Calm 29.95 1014 10 16.0934 0 0
1:35 pm 13:35 Sunny 63 17.1 31 -0.6 30 30 S 6 9 29.94 1014 10 16.0934 0 0
1:55 pm 13:55 Sunny 64 17.7 28 -2.3 26 26 WSW 6 9 29.93 1014 10 16.0934 0 0
2:15 pm 14:15 Sunny 65 18.2 28 -2.4 25 25 SSW 8 13 29.92 1013 10 16.0934 0 0
2:35 pm 14:35 Sunny 65 18.1 28 -2.4 25 25 Calm 29.92 1013 10 16.0934 0 0
2:55 pm 14:55 Sunny 66 18.7 28 -2.2 24 24 SW 5 7 29.91 1013 10 16.0934 0 0
3:15 pm 15:15 Sunny 66 18.9 28 -2.3 24 24 SSW 5 7 29.91 1013 10 16.0934 0 0
3:35 pm 15:35 Sunny 66 18.8 27 -3 23 23 SSW 5 7 29.91 1013 10 16.0934 0 0
3:55 pm 15:55 Sunny 66 18.7 27 -2.7 23 23 Calm 29.9 1013 10 16.0934 0 0
4:15 pm 16:15 Sunny 67 19.2 27 -3 22 22 S 5 7 29.9 1012 10 16.0934 0 0
4:35 pm 16:35 Sunny 67 19.4 26 -3.1 22 22 S 3 6 29.9 1012 10 16.0934 0 0
4:55 pm 16:55 Sunny 66 19.1 28 -2.5 23 23 S 6 9 29.9 1013 10 16.0934 0 0
5:15 pm 17:15 Sunny 66 19.1 30 -1.1 26 26 SW 6 9 29.91 1013 10 16.0934 0 0
5:35 pm 17:35 Sunny 65 18.6 31 -0.5 28 28 S 5 7 29.91 1013 10 16.0934 0 0
5:55 pm 17:55 Sunny 64 17.7 31 -0.6 29 29 S 3 6 29.92 1013 10 16.0934 0 0
6:15 pm 18:15 Sunny 63 17.2 29 -1.5 28 28 S 5 7 29.94 1014 10 16.0934 0 0
6:30 pm 18:30 Sunny 60 15.8 32 -0.2 34 34 S 5 7 29.95 1014 10 16.0934 0 0
6:55 pm 18:55 Clear 58 14.3 31 -0.3 37 37 SSE 6 9 29.97 1015 7 11.26538 0 0
7:15 pm 19:15 Clear 53 11.8 31 -0.4 43 43 SSE 7 11 30 1016 10 16.0934 0 0
7:35 pm 19:35 Clear 54 12.4 30 -1.2 39 39 SSE 5 7 30 1016 10 16.0934 0 0
7:50 pm 19:50 Clear 54 12 30 -1.1 41 41 SSE 6 9 30.01 1016 10 16.0934 0 0
8:15 pm 20:15 Clear 55 12.5 30 -1.1 39 39 SE 6 9 30.01 1016 10 16.0934 0 0
8:35 pm 20:35 Clear 50 10.2 31 -0.3 48 48 SSE 6 9 30.03 1017 10 16.0934 0 0
8:55 pm 20:55 Clear 47 8.4 31 -0.5 54 54 SSE 6 9 30.05 1017 10 16.0934 0 0
9:15 pm 21:15 Clear 45 7.2 31 -0.6 58 58 SSE 6 9 30.07 1018 10 16.0934 0 0
9:35 pm 21:35 Clear 46 7.6 31 -0.5 57 57 SE 3 6 30.06 1018 10 16.0934 0 0
9:55 pm 21:55 Clear 46 7.7 31 -0.3 57 57 SSE 6 9 30.06 1018 10 16.0934 0 0
10:15 pm 22:15 Clear 44 6.8 31 -0.4 60 60 SSE 6 9 30.07 1018 10 16.0934 0 0
10:35 pm 22:35 Clear 43 6.3 30 -1 60 60 S 6 9 30.09 1019 10 16.0934 0 0
10:55 pm 22:55 Clear 44 6.8 30 -1 58 58 SSE 5 7 30.08 1019 10 16.0934 0 0
11:15 pm 23:15 Clear 44 6.5 31 -0.6 61 61 Calm 30.08 1019 10 16.0934 0 0
11:35 pm 23:35 Clear 37 3 32 0 81 81 SE 3 6 30.12 1020 10 16.0934 0 0
11:55 pm 23:55 Clear 37 2.5 31 -0.5 81 81 Calm 30.12 1020 10 16.0934 0 0

Powered by AerisWeather